logo meteosicilia

Diretta Meteo Goteborg-Save, Sveziasabato 20 luglio ore 22:20

Mappa
Sereno 18 °C Pioggia 24 Ore: T.min 11 T.max 24
Ponente Nord Km/h 0 Punto di rugiada: 14 °C Umidità: 77% Visibilità: 10 Km
Il sole sorge alle: 04:42 Il sole tramonta alle: 21:55
20 Luglio 2024 22:20 tempo osservato: Pioggia Pioggia 18 77 1012 vento: Nord N 0
20 Luglio 2024 21:50 tempo osservato: Sereno Sereno 19 77 1012 vento: Nord N 0
20 Luglio 2024 21:20 tempo osservato: Sereno Sereno 21 68 1012 vento: Nord N 0
20 Luglio 2024 20:50 tempo osservato: Sereno Sereno 21 68 1012 vento: Nord N 3.7
20 Luglio 2024 20:20 tempo osservato: Sereno Sereno 22 60 1012 vento: Nord O 7.4
20 Luglio 2024 19:50 tempo osservato: Sereno Sereno 22 60 1012 vento: Nord O 7.4
20 Luglio 2024 19:20 tempo osservato: Sereno Sereno 23 56 1013 vento: Nord O 9.3
20 Luglio 2024 18:50 tempo osservato: Sereno Sereno 23 53 1013 vento: Nord O 9.3
20 Luglio 2024 18:20 tempo osservato: Sereno Sereno 22 53 1013 vento: Nord O 11.1
20 Luglio 2024 17:50 tempo osservato: Sereno Sereno 22 56 1013 vento: Nord O 11.1
20 Luglio 2024 17:20 tempo osservato: Sereno Sereno 23 53 1013 vento: Nord O 13
20 Luglio 2024 16:50 tempo osservato: Sereno Sereno 22 56 1013 vento: Nord O 11.1
20 Luglio 2024 16:20 tempo osservato: Sereno Sereno 21 52 1014 vento: Nord O 14.8
20 Luglio 2024 15:50 tempo osservato: Sereno Sereno 22 56 1014 vento: Nord O 16.7
20 Luglio 2024 15:20 tempo osservato: Sereno Sereno 23 49 1014 vento: Nord O 18.5
20 Luglio 2024 14:50 tempo osservato: Sereno Sereno 23 56 1014 vento: Nord O 18.5
20 Luglio 2024 14:20 tempo osservato: Sereno Sereno 23 60 1014 vento: Nord O 18.5
20 Luglio 2024 13:50 tempo osservato: Sereno Sereno 23 60 1014 vento: Nord O 16.7
20 Luglio 2024 13:20 tempo osservato: Sereno Sereno 24 53 1014 vento: Nord O 13
20 Luglio 2024 12:50 tempo osservato: Sereno Sereno 23 56 1015 vento: Nord NO 7.4
20 Luglio 2024 12:20 tempo osservato: Sereno Sereno 23 56 1015 vento: Nord O/NO 7.4
20 Luglio 2024 11:50 tempo osservato: Sereno Sereno 23 56 1015 vento: Nord N 3.7
20 Luglio 2024 11:20 tempo osservato: Sereno Sereno 22 56 1015 vento: Nord NO 7.4
20 Luglio 2024 10:50 tempo osservato: Sereno Sereno 22 64 1015 vento: Nord N 3.7
20 Luglio 2024 10:20 tempo osservato: Sereno Sereno 22 64 1015 vento: Nord N 3.7
20 Luglio 2024 09:50 tempo osservato: Sereno Sereno 21 68 1015 vento: Nord N 5.5
20 Luglio 2024 09:20 tempo osservato: Sereno Sereno 21 68 1016 vento: Nord N 5.5
20 Luglio 2024 08:50 tempo osservato: Sereno Sereno 20 72 1016 vento: Nord N 5.5
20 Luglio 2024 08:20 tempo osservato: Sereno Sereno 19 77 1016 vento: Nord N 5.5
20 Luglio 2024 07:50 tempo osservato: Sereno Sereno 19 82 1016 vento: Nord N 0
20 Luglio 2024 07:20 tempo osservato: Sereno Sereno 17 88 1016 vento: Nord N 0
20 Luglio 2024 06:50 tempo osservato: Sereno Sereno 15 87 1016 vento: Nord N 0
20 Luglio 2024 06:20 tempo osservato: Sereno Sereno 13 93 1016 vento: Nord N 0
20 Luglio 2024 05:50 tempo osservato: Sereno Sereno 12 93 1016 vento: Nord N 0
20 Luglio 2024 05:20 tempo osservato: Sereno Sereno 12 87 1017 vento: Nord N 0
20 Luglio 2024 04:50 tempo osservato: Sereno Sereno 12 87 1017 vento: Nord N 0
20 Luglio 2024 04:20 tempo osservato: Sereno Sereno 11 93 1017 vento: Nord N 0
20 Luglio 2024 03:50 tempo osservato: Sereno Sereno 12 93 1017 vento: Nord N 1.8
20 Luglio 2024 03:20 tempo osservato: Sereno Sereno 12 93 1017 vento: Nord N 0
20 Luglio 2024 02:50 tempo osservato: Sereno Sereno 12 93 1017 vento: Nord N 0
20 Luglio 2024 02:20 tempo osservato: Sereno Sereno 12 93 1017 vento: Nord N 0
20 Luglio 2024 01:50 tempo osservato: Sereno Sereno 13 87 1017 vento: Nord N 0
20 Luglio 2024 01:20 tempo osservato: Sereno Sereno 13 87 1018 vento: Nord N 0
20 Luglio 2024 00:50 tempo osservato: Sereno Sereno 13 87 1018 vento: Nord N 0
20 Luglio 2024 00:20 tempo osservato: Sereno Sereno 13 87 1018 vento: Nord N 3.7
19 Luglio 2024 23:50 tempo osservato: Sereno Sereno 14 87 1018 vento: Nord N 3.7